Weather History for Imperial, NE

Change the Weather History Date:

Monday, February 7, 2011

  Actual Average Record
Temperature  
Mean Temperature 23 °F 30 °F  
Max Temperature 38 °F 43 °F 72 °F (1987)
Min Temperature 8 °F 17 °F -17 °F (1933)
Degree Days  
Heating Degree Days 42 35  
Month to date heating degree days 305 249  
Cooling Degree Days 0 0  
Month to date cooling degree days 0 0  
Year to date cooling degree days 0 0  
Moisture  
Dew Point 12 °F    
Average Humidity 63    
Maximum Humidity 88    
Minimum Humidity 37    
Precipitation  
Precipitation T in 0.02 in 0.50 in (1893)
Sea Level Pressure  
Sea Level Pressure 30.11 in    
Wind  
Wind Speed 14 mph (SE)    
Max Wind Speed 31 mph    
Max Gust Speed 40 mph    
Visibility 8 miles    
Events Snow    
T = Trace of Precipitation, MM = Missing Value Source: NWS Daily Summary

Daily Weather History Graph

Daily Weather History Graph

Search for Another Location

Airport:

Trip Planner

Search our weather history database for the weather conditions in past years. The results will help you decide how hot, cold, wet, or windy it might be!

Date:

Astronomy

Feb. 07, 2011 Rise Set
Actual Time 6:50 AM MST 5:11 PM MST
Civil Twilight 6:21 AM MST 5:40 PM MST
Nautical Twilight 5:49 AM MST 6:12 PM MST
Astronomical Twilight 5:17 AM MST 6:44 PM MST
Moon 8:31 AM MST (2/7) 9:57 PM MST (2/7)
Length of Visible Light 11h 18m
Length of Day
10h 21m
Waxing Crescent, 19% of the Moon is Illuminated
Feb 7
Waxing Crescent
Feb 11
First Quarter
Feb 18
Full
Feb 24
Last Quarter
Mar 4
New

Hourly Weather History & Observations

Time (MST) Temp. Windchill Dew Point Humidity Pressure Visibility Wind Dir Wind Speed Gust Speed Precip Events Conditions
12:53 AM 18.0 °F 8.7 °F 12.9 °F 81% 30.35 in 10.0 mi NW 6.9 mph - N/A   Clear
1:53 AM 15.1 °F 7.7 °F 10.9 °F 84% 30.35 in 10.0 mi West 4.6 mph - N/A   Clear
2:53 AM 14.0 °F 3.9 °F 10.0 °F 84% 30.34 in 10.0 mi West 6.9 mph - N/A   Clear
3:53 AM 15.1 °F 6.4 °F 10.0 °F 80% 30.31 in 10.0 mi West 5.8 mph - N/A   Clear
4:53 AM 12.0 °F 4.1 °F 8.1 °F 84% 30.29 in 10.0 mi West 4.6 mph - N/A   Clear
5:53 AM 10.9 °F 4.7 °F 7.0 °F 84% 30.27 in 10.0 mi WSW 3.5 mph - N/A   Clear
6:53 AM 10.9 °F 2.9 °F 6.1 °F 81% 30.26 in 10.0 mi SW 4.6 mph - N/A   Clear
7:53 AM 17.1 °F 11.7 °F 12.9 °F 84% 30.22 in 10.0 mi South 3.5 mph - N/A   Clear
8:53 AM 21.9 °F 13.4 °F 16.0 °F 78% 30.19 in 10.0 mi South 6.9 mph - N/A   Partly Cloudy
9:53 AM 28.0 °F 18.6 °F 19.9 °F 72% 30.15 in 10.0 mi South 10.4 mph - N/A   Mostly Cloudy
10:53 AM 30.9 °F 20.2 °F 15.1 °F 52% 30.11 in 10.0 mi South 15.0 mph - N/A   Mostly Cloudy
11:53 AM 33.1 °F 23.4 °F 16.0 °F 50% 30.06 in 10.0 mi South 13.8 mph 26.5 mph N/A   Mostly Cloudy
12:53 PM 34.0 °F 24.6 °F 15.1 °F 46% 30.01 in 10.0 mi South 13.8 mph 20.7 mph N/A   Overcast
1:53 PM 37.0 °F 27.4 °F 16.0 °F 42% 29.96 in 10.0 mi SSE 17.3 mph - N/A   Overcast
2:53 PM 37.0 °F 27.4 °F 15.1 °F 41% 29.92 in 10.0 mi SSE 17.3 mph - N/A   Overcast
3:53 PM 37.0 °F 28.9 °F 14.0 °F 39% 29.91 in 10.0 mi SE 12.7 mph - N/A   Overcast
4:53 PM 35.1 °F 25.5 °F 17.1 °F 48% 29.92 in 10.0 mi ESE 15.0 mph - N/A   Overcast
5:53 PM 33.1 °F 21.9 °F 17.1 °F 52% 29.93 in 10.0 mi ESE 18.4 mph 25.3 mph N/A   Overcast
6:53 PM 30.0 °F 16.9 °F 17.1 °F 59% 29.95 in 10.0 mi ESE 21.9 mph 31.1 mph N/A   Overcast
7:53 PM 28.0 °F 13.3 °F 16.0 °F 61% 29.99 in 10.0 mi ESE 25.3 mph 33.4 mph N/A   Overcast
8:43 PM 23.0 °F 5.1 °F 17.6 °F 80% 29.93 in 10.0 mi East 31.1 mph 35.7 mph N/A   Overcast
8:50 PM 23.0 °F 6.6 °F 15.8 °F 74% 29.93 in 10.0 mi East 25.3 mph 36.8 mph N/A   Overcast
8:53 PM 23.0 °F 6.9 °F 16.0 °F 74% 30.05 in 10.0 mi East 24.2 mph 36.8 mph N/A   Overcast
9:53 PM 17.1 °F -1.0 °F 10.9 °F 77% 30.12 in 4.0 mi ENE 24.2 mph 32.2 mph 0.00 in Snow Light Snow
10:18 PM 14.0 °F -6.2 °F 8.6 °F 79% 30.05 in 2.5 mi ENE 27.6 mph 31.1 mph 0.00 in Snow Light Snow
10:26 PM 14.0 °F -3.9 °F 8.6 °F 79% 30.06 in 3.0 mi ENE 20.7 mph - N/A Snow Light Snow
10:43 PM 14.0 °F -4.3 °F 6.8 °F 73% 30.07 in 2.5 mi ENE 21.9 mph 29.9 mph 0.00 in Snow Light Snow
10:50 PM 12.2 °F -8.2 °F 6.8 °F 79% 30.07 in 3.0 mi NE 26.5 mph 33.4 mph 0.00 in Snow Light Snow
10:53 PM 12.9 °F -6.1 °F 7.0 °F 77% 30.18 in 2.5 mi ENE 23.0 mph 33.4 mph 0.00 in Snow Light Snow
11:53 PM 9.0 °F -11.4 °F 1.9 °F 73% 30.23 in 2.0 mi ENE 23.0 mph 31.1 mph 0.00 in Snow Light Snow